Presure
402 455 431 420 420 399 384 382 379 368 372 391 384 271 260 238 233 246 261 233 243 215 173 188 205 222 209 182 210 230 224 236 246 255 249 249 254 169 193 140 150 161 147 152 132 159 139
283 460 448 434 424 412 414 387 374 360 365 388 415 361 298 239 245 232 227 224 232 246 244 216 207 187 206 216 225 183 228 230 243 252 255 265 268 273 159 196 193 136 181 133 130 153 152
272 453 439 421 391 412 435 417 387 366 372 373 350 365 358 271 237 229 238 259 233 209 254 241 238 216 211 167 165 238 229 228 223 244 248 239 260 265 278 284 290 277 166 138 145 140 153
254 276 420 428 405 395 391 420 395 385 365 365 355 368 372 351 347 319 241 246 240 215 223 246 241 234 226 177 172 246 227 219 244 223 233 239 237 249 273 270 211 170 293 136 174 156 149
228 259 241 403 441 406 390 387 389 390 373 366 357 362 378 338 346 346 248 243 240 238 236 247 243 237 237 176 247 245 222 259 247 256 254 252 267 269 266 275 291 295 240 257 317 234 152
197 237 255 240 387 368 403 394 384 375 379 382 387 399 401 333 326 325 261 247 238 226 255 259 259 242 247 246 246 254 258 262 260 267 267 269 275 281 281 293 301 277 306 142 166 209 146
176 228 247 247 356 391 362 370 393 376 384 397 413 381 360 318 318 311 305 235 221 231 246 261 265 256 269 260 264 263 253 265 270 269 270 274 281 296 298 313 322 162 323 327 158 133 158
184 243 217 213 258 360 366 362 357 371 374 372 363 355 352 317 323 312 320 296 284 242 261 268 246 262 273 267 269 256 267 274 279 274 274 311 319 326 336 323 320 326 136 135 233 119 142
174 191 201 191 171 253 322 361 334 358 361 347 360 349 364 321 323 326 318 305 284 275 259 263 258 267 273 269 272 267 249 258 287 341 349 353 343 340 353 358 328 368 407 142 162 126 148
167 231 181 184 94 237 256 315 351 337 360 350 360 348 382 320 317 328 325 318 306 268 253 270 271 240 240 245 261 257 327 345 358 354 320 316 338 402 370 393 354 148 144 137 207 147 151
228 172 173 243 192 221 238 249 305 364 349 325 359 343 362 334 326 321 323 262 256 265 258 256 256 266 328 330 347 351 335 290 359 402 393 366 349 350 346 337 241 309 138 150 356 125 145
214 174 167 172 266 168 200 215 226 263 358 359 333 309 270 365 343 340 348 351 352 345 339 325 343 347 356 355 303 318 379 362 299 317 255 223 203 214 248 230 177 129 277 147 305 219 222
215 187 199 211 124 213 180 189 199 183 207 403 390 368 350 326 306 313 342 383 384 388 382 379 339 286 294 339 333 311 309 308 301 303 289 307 310 296 125 302 274 279 210 194 150 133 130
181 161 190 185 208 203 179 219 242 218 219 224 216 363 394 382 351 316 328 321 315 316 308 316 314 378 341 311 303 299 296 289 231 290 288 288 297 295 304 279 129 130 135 174 131 136 144
173 181 157 213 214 201 199 253 188 139 167 182 171 169 161 310 400 285 385 380 336 334 340 165 299 185 184 182 155 155 185 188 277 170 156 120 125 126 127 130 133 156 163 156 152 150 192
185 163 193 168 192 221 197 173 170 198 158 177 160 158 139 159 146 410 165 159 155 188 141 145 144 146 142 129 117 150 152 155 154 203 208 150 158 204 273 225 280 260 273 278 273 169 211
191 187 171 196 189 192 179 183 202 185 177 138 137 140 132 136 136 135 137 145 260 149 252 227 113 266 186 156 167 176 279 279 277 285 275 280 281 276 209 250 247 202 270 181 213 242 127
179 204 193 187 197 183 150 205 143 132 144 135 138 138 132 121 139 184 202 250 181 313 291 161 160 171 178 258 149 294 303 307 306 296 274 283 285 192 174 280 225 270 279 207 241 287 244
190 156 197 176 176 160 190 154 205 135 135 122 154 164 218 211 196 191 196 184 203 169 236 233 154 172 172 224 142 206 173 222 192 253 165 159 166 183 268 223 204 177 161 279 281 267 280
174 190 158 178 184 198 182 175 146 135 142 129 142 156 227 138 126 132 164 179 210 196 167 190 243 171 147 211 221 238 200 148 172 198 183 169 239 198 198 220 241 266 207 148 134 270 209
180 182 171 159 155 189 197 192 178 142 129 130 127 133 134 126 129 134 129 134 208 191 214 185 150 174 198 146 156 143 144 140 138 239 234 239 174 162 188 181 203 231 245 238 266 300 129
152 153 181 189 179 179 183 192 166 145 187 147 129 132 132 132 130 141 135 116 131 121 190 214 191 200 201 192 133 134 134 185 203 214 215 229 123 225 169 169 155 236 169 154 201 160 239
181 170 145 165 185 178 171 173 135 188 179 176 187 126 137 135 138 160 139 139 138 135 166 156 161 167 154 200 174 207 133 128 149 138 209 214 169 180 206 206 216 217 164 221 207 158 159
169 169 182 148 180 171 185 183 179 171 192 183 189 217 173 126 130 129 133 133 138 170 129 128 130 200 167 164 198 208 204 181 196 164 192 187 201 203 210 209 200 179 211 190 170 161 166
173 168 163 187 168 162 161 180 186 198 175 189 180 199 172 152 157 125 136 132 160 250 128 132 127 127 138 231 175 204 210 199 198 204 207 197 195 195 191 193 204 184 200 202 210 203 197
158 163 161 175 173 174 154 170 167 183 157 185 178 197 168 165 178 195 177 131 199 170 129 135 137 246 134 131 205 229 229 227 214 206 193 207 205 198 197 204 198 184 196 206 190 201 197
172 147 183 179 167 165 160 172 172 165 189 191 171 195 190 190 211 166 204 127 166 190 141 219 266 227 197 134 142 128 132 134 225 224 225 219 216 206 203 200 199 198 195 199 199 188 185
169 179 150 146 179 164 186 181 178 173 190 171 181 184 174 186 201 193 210 156 199 178 162 121 169 142 155 271 258 213 194 193 187 201 216 230 227 225 238 233 234 232 219 201 207 199 196
171 171 168 179 151 150 157 179 169 164 157 180 162 178 186 191 190 177 199 201 187 168 192 172 191 187 194 198 199 256 255 235 241 234 236 165 207 211 232 238 233 236 240 203 238 234 236
Wind_Speed
83 43 44 34 23 15 17 10 17 17 21 24 40 97 98 78 70 84 90 81 98 84 67 74 80 86 86 74 80 84 87 82 83 83 85 82 91 74 87 65 64 70 61 61 57 60 57
122 48 43 40 34 20 11 15 18 16 15 16 21 56 92 68 85 73 73 73 84 91 91 90 86 73 77 81 87 70 81 83 85 84 81 79 82 82 64 69 71 62 78 62 59 56 54
123 61 43 38 46 46 20 7 14 16 9 14 15 50 57 94 81 81 86 89 70 62 88 87 89 88 82 53 48 87 86 81 73 81 80 77 81 82 81 80 81 79 69 62 61 58 49
116 124 68 40 39 42 44 20 15 16 17 25 29 32 47 43 45 69 90 86 79 61 60 81 86 86 86 52 54 86 86 71 88 71 73 77 75 79 82 80 64 68 83 59 61 51 46
103 121 102 81 35 40 37 38 30 10 9 17 22 27 24 35 31 44 89 81 74 68 67 74 81 83 81 51 88 85 71 85 84 84 83 81 82 83 80 83 84 82 67 69 81 63 36
81 114 122 106 86 71 59 50 42 34 22 11 12 16 19 40 31 45 95 83 68 50 75 76 78 71 82 77 72 80 77 83 84 85 85 84 85 83 83 86 83 69 70 41 43 43 36
66 109 119 119 104 73 79 72 45 38 27 21 30 45 35 42 36 47 55 52 45 47 53 73 68 70 84 78 82 82 68 75 78 76 75 76 80 80 77 72 66 42 65 67 43 50 47
71 105 102 96 123 90 82 75 73 59 55 53 52 48 48 41 30 46 46 63 72 39 64 71 43 59 69 69 71 55 63 66 69 62 63 71 67 63 56 55 54 55 46 41 46 36 51
65 78 87 77 70 117 111 78 87 69 56 49 43 30 38 39 30 32 40 50 63 67 53 59 46 51 54 45 52 53 39 51 60 50 50 47 44 44 44 43 40 31 26 45 42 39 45
56 101 67 71 26 106 115 110 75 77 59 54 40 37 34 33 26 18 29 36 44 50 42 47 44 29 28 32 44 46 43 40 39 34 22 24 24 17 4 8 5 36 34 37 32 40 43
117 56 61 91 73 92 103 107 111 62 63 63 44 39 33 31 24 21 18 19 19 23 20 23 25 35 33 31 30 25 16 13 20 5 3 10 17 14 9 8 11 8 34 36 15 37 37
105 55 52 54 101 55 75 82 91 108 66 51 51 49 44 25 25 20 14 13 14 20 25 25 21 20 15 11 9 3 7 24 8 28 15 13 13 10 8 9 20 30 2 34 6 14 15
107 67 79 92 25 70 57 63 69 60 72 47 39 36 34 34 30 19 19 12 12 10 12 10 15 22 16 6 26 35 34 35 29 31 22 19 14 14 25 34 24 24 11 15 27 34 37
65 47 74 61 90 70 51 86 86 77 73 81 69 61 30 26 23 25 22 22 22 19 23 22 21 14 37 42 38 38 40 34 19 27 24 24 25 27 32 22 32 32 33 22 38 40 39
56 62 37 105 104 76 70 85 51 31 42 52 43 44 42 55 31 33 24 21 23 20 21 29 47 28 26 23 16 13 15 13 32 9 11 23 27 27 30 31 33 24 23 30 33 35 16
72 41 84 42 75 107 71 44 50 48 37 46 35 36 32 36 32 36 33 33 30 31 26 24 21 20 17 13 13 10 8 7 7 10 11 15 14 11 23 9 27 19 15 23 21 26 11
69 67 47 82 73 77 59 57 76 40 39 28 28 30 28 28 28 28 23 21 50 24 41 29 8 43 24 13 14 12 33 28 26 26 25 28 31 25 6 14 11 2 14 16 8 13 36
60 82 70 69 79 59 23 93 22 20 23 23 23 25 23 16 20 26 43 73 25 52 52 21 20 12 11 55 10 40 34 31 24 18 35 31 34 5 10 22 13 22 15 2 9 18 11
68 27 71 53 45 20 68 21 89 14 17 8 25 25 53 59 36 34 33 25 39 20 49 46 16 12 10 39 8 32 10 34 22 54 7 8 11 10 43 17 6 7 19 18 15 18 13
49 66 25 51 58 69 54 37 26 8 8 10 14 24 46 16 10 13 12 27 44 37 18 34 52 13 12 31 36 44 26 6 2 24 11 7 45 15 21 28 44 39 5 18 30 24 11
52 54 45 25 20 61 72 61 43 5 6 5 7 7 9 8 8 8 11 9 43 30 44 26 10 22 30 10 9 10 8 6 4 39 37 41 4 14 7 3 16 33 44 40 41 18 36
30 21 53 62 45 48 49 62 19 16 48 6 4 4 3 4 2 5 3 12 4 7 29 32 26 31 29 24 4 6 5 18 24 27 28 33 10 32 9 7 21 34 2 17 15 11 38
51 39 11 40 57 44 33 37 7 51 36 33 55 8 4 5 4 15 3 4 3 3 10 10 7 15 7 25 17 22 1 5 6 4 18 19 6 10 14 14 23 23 16 27 16 22 20
37 37 46 14 51 41 57 48 40 28 60 44 51 82 21 11 10 9 7 7 10 12 7 6 8 17 14 13 22 18 17 16 17 15 17 14 16 15 14 15 13 12 17 10 14 18 14
44 33 34 53 30 30 32 48 53 62 34 51 39 62 22 14 7 13 12 11 13 33 11 15 16 15 15 19 16 21 16 14 15 14 15 16 18 19 19 19 16 16 15 15 16 16 11
39 39 36 41 32 33 24 39 36 50 17 40 36 64 23 15 39 51 25 15 45 16 17 19 18 27 19 20 23 21 18 18 18 20 20 18 17 18 18 18 17 21 17 15 22 17 18
53 31 53 46 35 33 31 43 37 34 62 55 28 64 49 43 68 17 59 25 31 36 24 40 33 33 21 24 21 23 23 22 19 17 18 20 21 22 22 22 24 23 23 23 21 25 21
47 52 40 33 53 36 64 51 37 34 59 39 43 44 33 45 68 51 64 21 46 27 27 25 38 19 27 30 33 28 26 24 24 25 20 19 18 20 20 23 23 23 26 29 27 27 27
51 45 46 60 41 36 41 53 37 36 31 49 33 45 52 60 54 40 57 52 40 18 51 19 52 38 34 45 42 32 35 35 32 29 26 27 27 24 21 21 20 22 22 25 23 24 25
Wind_Direction
4 1 359 357 341 285 277 257 229 230 234 215 219 231 234 237 235 226 222 227 229 231 229 231 234 238 239 240 245 246 245 248 250 252 251 251 250 237 242 234 233 237 228 232 238 241 241
16 16 18 30 26 0 281 236 210 226 243 197 205 210 223 230 232 240 234 224 227 230 230 233 237 237 240 241 243 237 248 249 250 253 253 257 258 259 232 242 243 230 241 233 240 235 241
18 23 28 29 28 40 37 190 191 205 173 144 193 208 220 222 230 233 235 222 228 228 227 229 233 237 242 226 228 246 251 252 253 256 256 252 258 259 263 265 267 263 237 231 231 236 236
21 24 30 35 38 43 53 58 147 150 161 169 189 199 217 212 217 216 227 226 225 229 232 231 233 235 240 234 241 248 251 252 256 252 257 258 256 260 267 263 254 237 265 234 238 234 238
23 25 28 33 44 42 53 58 68 118 196 191 199 203 202 187 208 197 220 221 226 232 237 233 235 237 241 237 247 251 249 255 259 260 262 263 265 266 265 267 270 270 256 256 265 255 233
29 24 29 33 39 44 53 56 58 55 57 114 177 178 167 169 188 192 211 216 220 222 231 231 231 240 243 247 252 257 260 260 264 265 266 267 268 269 270 271 270 264 267 234 242 245 224
35 26 29 32 35 45 46 50 58 61 62 68 115 114 122 162 180 188 196 206 216 219 231 233 234 242 240 247 251 255 258 262 263 265 267 270 271 272 269 269 269 236 269 270 231 220 232
35 28 31 37 31 37 40 47 52 61 71 87 104 116 142 152 165 189 191 199 210 215 229 233 243 246 247 251 252 256 263 266 267 267 266 269 269 271 270 268 272 277 221 229 254 245 229
33 40 38 42 37 34 40 42 42 55 67 58 91 121 134 157 164 183 192 201 213 222 230 236 245 250 252 252 254 257 259 265 268 278 277 277 273 271 272 277 271 267 273 229 229 244 240
35 32 42 42 74 35 36 41 44 45 59 62 75 73 116 157 166 147 189 203 211 226 227 237 238 226 233 248 261 259 273 281 283 282 265 265 267 273 349 280 317 226 229 231 240 234 236
25 39 42 33 41 36 37 39 43 49 50 47 73 72 89 160 167 187 199 167 183 206 206 220 236 250 254 261 270 275 273 237 284 357 95 68 73 46 55 47 228 295 230 231 330 240 237
26 39 44 46 29 50 46 44 42 42 50 56 55 54 57 117 157 176 185 213 222 219 225 228 238 246 254 261 141 19 134 94 99 102 116 181 192 193 145 214 214 231 9 233 104 224 234
27 33 30 30 57 41 45 45 51 59 53 61 67 69 68 69 80 104 104 129 131 142 177 179 139 137 120 117 111 110 104 90 86 78 83 69 79 115 223 102 103 92 206 181 231 234 236
27 34 31 38 32 41 55 34 36 46 48 50 62 55 78 84 82 77 86 96 100 107 109 108 100 126 112 114 114 98 87 86 95 75 79 79 85 103 113 109 222 223 223 230 234 240 243
33 29 37 28 25 34 43 31 60 71 59 59 65 70 79 59 83 88 92 93 93 112 111 94 106 85 86 89 117 120 89 85 93 151 192 228 221 224 226 228 229 235 237 236 239 242 227
22 32 27 38 33 25 34 47 45 49 72 64 70 74 81 77 82 78 83 94 98 103 106 101 104 106 113 155 191 124 138 152 176 117 133 222 233 171 102 148 109 56 74 96 102 252 221
22 28 29 28 27 33 34 42 35 52 51 86 88 86 94 83 84 81 80 87 83 103 98 98 189 76 88 84 55 44 85 86 87 108 90 91 93 100 92 80 68 220 54 231 212 135 243
19 16 28 24 28 27 59 28 81 99 89 99 90 85 101 122 88 75 74 51 86 74 73 79 75 77 102 82 87 81 83 86 87 93 77 79 74 139 320 76 80 68 64 300 132 104 71
13 23 19 22 29 45 26 44 28 95 105 99 61 55 37 32 57 53 55 54 69 71 59 66 65 92 95 78 123 87 104 83 75 82 327 341 325 22 69 53 204 315 226 59 76 59 55
10 11 11 20 25 23 22 33 27 99 86 117 82 50 36 95 124 95 63 38 45 57 56 53 55 79 51 70 73 77 68 151 336 92 68 62 83 78 60 73 71 65 241 264 250 52 15
5 7 4 5 10 21 19 25 23 49 141 135 130 114 112 132 118 90 119 80 32 39 38 61 14 37 49 19 31 46 51 47 165 75 77 78 332 292 27 15 61 68 64 65 60 59 247
351 358 4 6 6 9 18 18 13 16 28 11 199 176 161 134 145 19 54 210 118 225 26 40 43 38 39 44 77 74 57 48 54 58 62 63 243 68 287 276 305 67 192 294 66 242 63
346 353 336 356 3 3 3 13 292 19 16 17 20 232 218 226 247 24 293 313 311 319 21 7 80 15 1 27 24 27 142 172 19 340 53 58 24 16 51 52 54 58 280 63 51 262 260
335 340 347 330 351 355 5 2 9 2 15 8 16 14 13 243 246 252 260 278 287 349 275 279 297 8 350 351 5 13 7 10 4 329 359 1 7 17 41 35 17 340 35 357 287 275 277
327 330 331 341 341 343 342 357 1 2 3 6 9 11 3 271 319 257 258 266 320 10 282 285 306 313 292 5 329 345 348 342 345 352 357 346 344 344 342 341 356 333 352 359 15 2 344
314 316 322 330 337 345 328 340 340 357 319 4 359 3 341 337 358 7 2 278 8 351 272 261 267 349 278 291 341 348 348 345 334 333 328 335 332 327 323 334 328 323 330 346 321 341 334
313 311 320 323 319 320 323 337 334 332 349 350 346 356 357 1 359 319 3 261 337 355 330 11 2 0 301 270 291 290 288 290 332 330 331 326 324 316 314 315 316 316 316 318 317 311 312
303 311 304 310 321 311 324 326 338 331 343 331 342 349 343 350 355 351 2 277 352 341 325 280 341 311 327 323 326 315 309 310 310 321 324 330 327 320 330 324 325 323 317 307 310 304 304
296 297 294 309 302 307 307 319 312 314 314 335 316 336 342 347 346 335 351 0 343 302 341 314 342 341 354 350 351 307 316 313 315 314 315 295 307 305 314 314 315 320 323 314 324 322 326